TimeAKDT,TemperatureF,Dew PointF,Humidity,Sea Level PressureIn,VisibilityMPH,Wind Direction,Wind SpeedMPH,Gust SpeedMPH,PrecipitationIn,Events,Conditions,WindDirDegrees,DateUTC
12:53 AM,57.0,55.0,93,29.99,10.0,SE,3.5,-,N/A,,Clear,140,2013-09-04 08:53:00
1:53 AM,57.0,55.0,93,30.00,10.0,SSE,3.5,-,N/A,,Clear,150,2013-09-04 09:53:00
2:53 AM,57.9,55.0,90,30.00,10.0,SE,3.5,-,N/A,,Mostly Cloudy,130,2013-09-04 10:53:00
3:53 AM,55.0,54.0,96,30.01,10.0,NNW,3.5,-,N/A,,Partly Cloudy,330,2013-09-04 11:53:00
4:53 AM,55.0,53.1,93,30.02,10.0,Calm,Calm,-,N/A,,Clear,0,2013-09-04 12:53:00
5:53 AM,53.1,52.0,96,30.04,10.0,Calm,Calm,-,N/A,,Clear,0,2013-09-04 13:53:00
6:12 AM,55.4,53.6,94,30.04,10.0,SSE,3.5,-,N/A,,Mostly Cloudy,150,2013-09-04 14:12:00
6:53 AM,57.0,54.0,89,30.05,10.0,Calm,Calm,-,N/A,,Overcast,0,2013-09-04 14:53:00
7:32 AM,57.2,55.4,94,30.06,10.0,Variable,3.5,-,N/A,,Overcast,0,2013-09-04 15:32:00
7:53 AM,57.9,55.9,93,30.06,10.0,South,4.6,-,N/A,,Overcast,190,2013-09-04 15:53:00
8:53 AM,57.9,55.9,93,30.07,10.0,SE,6.9,-,N/A,,Overcast,140,2013-09-04 16:53:00
9:38 AM,59.0,55.4,88,30.08,10.0,SE,5.8,-,N/A,,Overcast,130,2013-09-04 17:38:00
9:53 AM,59.0,55.9,90,30.09,10.0,SE,4.6,-,N/A,,Overcast,140,2013-09-04 17:53:00
10:49 AM,59.0,55.4,88,30.09,10.0,South,4.6,-,N/A,,Overcast,180,2013-09-04 18:49:00
10:53 AM,59.0,55.0,87,30.09,10.0,SSE,4.6,-,N/A,,Overcast,160,2013-09-04 18:53:00
11:53 AM,59.0,55.9,90,30.10,10.0,South,3.5,-,N/A,,Overcast,170,2013-09-04 19:53:00
12:43 PM,57.2,55.4,94,30.10,9.0,SSE,4.6,-,N/A,,Overcast,150,2013-09-04 20:43:00
12:53 PM,57.9,55.9,93,30.11,5.0,South,4.6,-,N/A,,Overcast,170,2013-09-04 20:53:00
12:59 PM,57.2,55.4,94,30.10,2.5,SSE,4.6,-,N/A,,Overcast,160,2013-09-04 20:59:00
1:18 PM,57.2,57.2,100,30.10,1.8,SSE,4.6,-,N/A,,Overcast,150,2013-09-04 21:18:00
1:53 PM,57.9,57.9,100,30.11,1.5,SE,5.8,-,0.01,,Drizzle,140,2013-09-04 21:53:00
2:05 PM,57.2,57.2,100,30.10,1.5,SE,4.6,-,0.01,,Drizzle,130,2013-09-04 22:05:00
2:21 PM,57.2,57.2,100,30.10,2.5,SE,5.8,-,0.01,,Drizzle,140,2013-09-04 22:21:00
2:32 PM,57.2,57.2,100,30.10,4.0,SE,6.9,-,0.01,,Drizzle,140,2013-09-04 22:32:00
2:53 PM,59.0,57.9,96,30.11,5.0,SSE,6.9,-,0.01,,Drizzle,150,2013-09-04 22:53:00
3:53 PM,59.0,57.0,93,30.11,10.0,SE,9.2,-,0.00,,Overcast,130,2013-09-04 23:53:00
4:53 PM,59.0,57.0,93,30.10,10.0,SSE,4.6,-,0.01,Rain,Light Rain,150,2013-09-05 00:53:00
5:53 PM,57.9,57.0,97,30.10,10.0,SSE,5.8,-,0.00,,Overcast,150,2013-09-05 01:53:00
6:53 PM,57.9,57.0,97,30.10,10.0,SE,3.5,-,0.00,,Overcast,130,2013-09-05 02:53:00
7:24 PM,57.2,57.2,100,30.10,10.0,SE,4.6,-,0.00,,Overcast,140,2013-09-05 03:24:00
7:53 PM,57.9,57.0,97,30.11,10.0,SE,4.6,-,0.00,,Overcast,140,2013-09-05 03:53:00
8:53 PM,57.9,57.0,97,30.12,10.0,SSE,4.6,-,N/A,,Overcast,150,2013-09-05 04:53:00
9:53 PM,57.9,57.0,97,30.13,10.0,SE,5.8,-,N/A,,Overcast,140,2013-09-05 05:53:00
10:01 PM,57.2,57.2,100,30.12,10.0,SSE,5.8,-,N/A,,Overcast,150,2013-09-05 06:01:00
10:39 PM,57.2,57.2,100,30.13,5.0,SSE,5.8,-,0.00,Rain,Light Rain,150,2013-09-05 06:39:00
10:53 PM,57.9,57.0,97,30.13,6.0,SE,5.8,-,0.00,Rain,Light Rain,130,2013-09-05 06:53:00
11:53 PM,57.9,57.0,97,30.14,1.8,SE,4.6,-,0.01,Rain,Light Rain,140,2013-09-05 07:53:00